sat.trackr.live / text

‹ back to catalog

STARLINK-31422

NORAD 59354 · 2024-060G

PAYLOAD ACTIVE UNKNOWN

§ Identity

Operator
Country
US
Launch date
2024-03-31
Launch site
AFETR
Launch vehicle
Mass (kg)
RCS (m²)

Purposes: comms

External: N2YO · Heavens-Above · Gunter

§ Orbital elements

Epoch: 2026-09-20T23:14:50.284320Z

Period
94.27 min
Inclination
43.0040°
Eccentricity
0.0001355
Mean motion
15.27577950 rev/d
Perigee alt
482.1 km
Apogee alt
484.0 km
Semi-major
6,861.2 km
B*
-3.3585e-6
RAAN
237.4180°
Arg perigee
279.5751°
Mean anomaly
80.4947°
Rev number
13,992

§ Raw data

STARLINK-314221 59354U 24060G   26263.96863755 -.00000355  00000+0 -33585-5 0  99992 59354  43.0040 237.4180 0001355 279.5751  80.4947 15.27577950139928

JSON: /api/v1/satellites/59354 · /tle

For live sub-satellite position, see the globe view (requires WebGL).

§ Visibility from observer

Set your observer location to see the next 7 days of passes ≥ 10°. The values pass through the URL so the page stays shareable.

No JS? Fill the form by hand. The geolocation button needs JavaScript.